[[{"header":{"parameterUnit":"m.s-1","parameterCategory":1,"la1":30.2991,"la2":30.254,"lo1":-89.0895,"lo2":-89.0444,"dy":0.0017,"dx":0.0017,"nx":28,"ny":28,"refTime":"2024-06-21T03:00:00:Z","depth":0,"parameterNumber":2,"parameterNumberName":"U-component_of_WINDS"},"data":[0,0,0,0,0,0,0,0,0,0,0,0,0,0,0,0,0,0,0,0,0,0,0,0,0,0,0,0,0,0,0,0,0,0,0,0,0,0,0,0,0,0,0,0,0,0,0,0,0,0,0,0,0,0,0,0,0,0,-0.758,-0.7579,0,-0.7461,-0.746,-0.7459,-0.7402,-0.7402,-0.7402,-0.7402,-0.7278,-0.7275,-0.7272,0,0,0,0,0,0,0,0,0,0,0,0,0,-0.7758,-0.7755,-0.758,-0.7579,-0.7577,-0.7462,-0.746,-0.7458,-0.7402,-0.7402,-0.7402,-0.7402,-0.7279,-0.7275,-0.7271,0,0,0,0,0,0,0,0,0,0,0,0,0,-0.7664,-0.7754,-0.758,-0.7535,-0.753,-0.7462,-0.746,-0.7458,-0.7402,-0.7402,-0.7402,-0.7402,-0.7281,-0.7276,-0.7271,-0.7238,0,0,-0.7256,-0.7253,0,0,0,0,0,0,0,0,-0.767,-0.7658,-0.7543,-0.7538,-0.7532,-0.7446,-0.7477,-0.7384,-0.7402,-0.745,-0.7402,-0.7402,-0.7334,-0.7325,-0.7302,-0.7233,-0.7227,-0.7255,-0.7252,-0.725,-0.7248,0,0,0,0,0,0,0,-0.7676,-0.7663,-0.7533,-0.7542,-0.7535,-0.7521,-0.7507,-0.7459,-0.7393,-0.7446,-0.7442,-0.7428,-0.7331,-0.7307,-0.7299,-0.7226,-0.7255,-0.7251,-0.7248,-0.7246,-0.7126,-0.7126,0,0,0,0,0,0,-0.769,-0.7668,-0.7537,-0.7529,-0.7603,-0.7518,-0.7503,-0.7474,-0.7393,-0.7381,-0.7429,-0.7426,-0.7316,-0.7305,-0.7294,-0.7252,-0.725,-0.7245,-0.7242,-0.7126,-0.7126,-0.7126,0,0,0,0,0,0,-0.7694,-0.7679,-0.7542,-0.7598,-0.7579,-0.7514,-0.7482,-0.7471,-0.7447,-0.738,-0.7368,-0.7416,-0.7315,-0.7301,-0.7253,-0.7247,-0.7243,-0.7238,-0.7126,-0.7126,-0.7126,-0.7167,0,0,0,0,0,0,-0.77,-0.7681,-0.7668,-0.7598,-0.7576,-0.7503,-0.7482,-0.7469,-0.7439,-0.7435,-0.7365,-0.7354,-0.7314,-0.7261,-0.7248,-0.724,-0.7235,-0.7127,-0.7126,-0.7126,-0.7166,-0.7168,-0.717,0,0,0,0,0,-0.7706,-0.7683,-0.7667,-0.7652,-0.7559,-0.7502,-0.749,-0.7445,-0.7439,-0.7425,-0.7383,-0.7356,-0.725,-0.7257,-0.7242,-0.7232,-0.7127,-0.7126,-0.7126,-0.7165,-0.7168,-0.717,0,0,0,0,0,0,-0.7752,-0.7673,-0.7654,-0.7608,-0.7563,-0.7493,-0.7474,-0.7449,-0.7404,-0.7402,-0.7348,-0.7333,-0.729,-0.7256,-0.7265,-0.7198,-0.7186,-0.7183,-0.7221,-0.7223,-0.7225,-0.7234,-0.723,0,0,0,0,0,-0.7757,-0.7718,-0.7651,-0.7617,-0.7595,-0.7539,-0.7513,-0.7483,-0.7433,-0.7413,-0.7367,-0.7319,-0.7276,-0.7248,-0.7203,-0.7162,-0.7146,-0.7148,-0.715,-0.7152,-0.7149,-0.7126,-0.7126,-0.7124,-0.7124,-0.7124,0,0,-0.7766,-0.7718,-0.7697,-0.7625,-0.7586,-0.7548,-0.7523,-0.7482,-0.7453,-0.7407,-0.7359,-0.7324,-0.7268,-0.7223,-0.7201,-0.7194,-0.7147,-0.7151,-0.7154,-0.7149,-0.7126,-0.7126,-0.7126,-0.7124,-0.7124,-0.7124,0,0,-0.7763,-0.7723,-0.7691,-0.7653,-0.7595,-0.7559,-0.7551,-0.7486,-0.7461,-0.7413,-0.7378,-0.7343,-0.7268,-0.723,-0.7201,-0.7188,-0.7162,-0.7175,-0.7185,-0.7163,-0.7164,-0.7163,-0.7159,-0.7158,-0.7173,-0.7173,-0.7173,0,-0.7782,-0.7722,-0.7677,-0.7639,-0.7609,-0.7567,-0.7534,-0.75,-0.7431,-0.7411,-0.7404,-0.7311,-0.727,-0.7217,-0.7214,-0.7192,-0.7182,-0.7181,-0.7167,-0.7167,-0.7166,-0.7161,-0.716,-0.7175,-0.7174,-0.7174,-0.7174,0,-0.7748,-0.7708,-0.7689,-0.7624,-0.7592,-0.7557,-0.7507,-0.748,-0.7454,-0.7419,-0.7371,-0.7321,-0.7267,-0.7252,-0.7225,-0.7196,-0.7193,-0.7178,-0.7165,-0.7169,-0.7164,-0.7161,-0.7177,-0.7177,-0.7176,-0.7176,0,0,-0.7768,-0.7682,-0.7675,-0.7646,-0.7581,-0.7549,-0.7513,-0.7462,-0.744,-0.7395,-0.7363,-0.7303,-0.7289,-0.7256,-0.7225,-0.7206,-0.72,-0.7192,-0.719,-0.7196,-0.7166,-0.7178,-0.7176,-0.7184,-0.7183,-0.7183,-0.7171,0,-0.7756,-0.7689,-0.7649,-0.7599,-0.7562,-0.7523,-0.7492,-0.745,-0.7416,-0.738,-0.7343,-0.7301,-0.7286,-0.7266,-0.7246,-0.7205,-0.7193,-0.7206,-0.7154,-0.7153,-0.7168,-0.7173,-0.7185,-0.7176,-0.7168,-0.7168,-0.7168,0,-0.7732,-0.7689,-0.7636,-0.7577,-0.756,-0.7533,-0.7483,-0.7449,-0.7401,-0.7378,-0.7343,-0.7313,-0.7274,-0.7266,-0.7213,-0.7222,-0.7199,-0.7177,-0.7175,-0.7168,-0.716,-0.7166,-0.7172,-0.717,-0.7164,-0.7164,-0.7164,0,-0.7752,-0.7681,-0.764,-0.7617,-0.7547,-0.7529,-0.75,-0.7451,-0.7424,-0.7381,-0.7362,-0.7316,-0.729,-0.7254,-0.7212,-0.721,-0.7164,-0.7152,-0.7144,-0.7145,-0.7134,-0.7135,-0.7136,-0.7121,-0.7121,-0.7121,-0.7121,0,-0.7742,-0.7711,-0.7649,-0.7624,-0.7588,-0.7543,-0.751,-0.7477,-0.7435,-0.7403,-0.7367,-0.7338,-0.7285,-0.725,-0.7217,-0.7179,-0.7167,-0.7148,-0.7139,-0.715,-0.7153,-0.7134,-0.7133,-0.712,-0.712,-0.7121,-0.7121,0,-0.7757,-0.7715,-0.7668,-0.7607,-0.7591,-0.7568,-0.7516,-0.7491,-0.7457,-0.7418,-0.7406,-0.7352,-0.7309,-0.7265,-0.7206,-0.7184,-0.7147,-0.7135,-0.7164,-0.7159,-0.7153,-0.7154,-0.7141,-0.7137,-0.7125,-0.7126,-0.7126,0,-0.7753,-0.7729,-0.7666,-0.7643,-0.7615,-0.7577,-0.755,-0.7505,-0.7478,-0.7423,-0.7404,-0.7359,-0.732,-0.7254,-0.721,-0.7166,-0.7153,-0.7151,-0.7145,-0.7158,-0.7153,-0.7154,-0.7152,-0.7153,-0.7153,-0.7153,-0.7154,0,-0.7751,-0.7732,-0.7693,-0.7648,-0.7617,-0.7579,-0.754,-0.7523,-0.7471,-0.7442,-0.7399,-0.7369,-0.7311,-0.7267,-0.7218,-0.7187,-0.7162,-0.7156,-0.7152,-0.7163,-0.718,-0.7171,-0.7168,-0.7156,-0.7156,-0.7156,-0.7155,-0.7155,-0.7756,-0.7734,-0.7687,-0.7646,-0.7612,-0.7577,-0.7551,-0.7515,-0.7478,-0.7428,-0.7404,-0.7361,-0.7315,-0.7247,-0.7218,-0.7184,-0.7176,-0.717,-0.7168,-0.7167,-0.717,-0.7187,-0.7175,-0.7174,-0.7174,-0.7174,-0.7174,0,-0.7752,-0.7721,-0.7684,-0.7631,-0.76,-0.758,-0.7537,-0.7512,-0.7474,-0.7434,-0.7398,-0.7349,-0.7307,-0.7261,-0.7216,-0.7198,-0.7186,-0.7188,-0.7188,-0.7182,-0.7179,-0.7187,-0.7199,-0.7199,-0.7199,-0.7199,-0.7199,-0.7199,-0.7746,-0.7707,-0.7683,-0.7627,-0.7596,-0.7554,-0.7531,-0.7499,-0.7467,-0.7415,-0.738,-0.7351,-0.7309,-0.7262,-0.7223,-0.721,-0.7195,-0.7201,-0.7186,-0.7184,-0.7182,-0.718,-0.7187,-0.7198,-0.7198,-0.7191,-0.7191,-0.7191]},{"header":{"parameterUnit":"m.s-1","parameterCategory":1,"la1":30.2991,"la2":30.254,"lo1":-89.0895,"lo2":-89.0444,"dy":0.0017,"dx":0.0017,"nx":28,"ny":28,"refTime":"2024-06-21T03:00:00:Z","depth":0,"parameterNumber":3,"parameterNumberName":"V-component_of_WINDS"},"data":[0,0,0,0,0,0,0,0,0,0,0,0,0,0,0,0,0,0,0,0,0,0,0,0,0,0,0,0,0,0,0,0,0,0,0,0,0,0,0,0,0,0,0,0,0,0,0,0,0,0,0,0,0,0,0,0,0,0,3.0138,3.0138,0,3.0155,3.0155,3.0155,3.0213,3.0215,3.0216,3.0217,3.0229,3.0229,3.0228,0,0,0,0,0,0,0,0,0,0,0,0,0,3.0153,3.0152,3.0138,3.0138,3.0138,3.0155,3.0155,3.0155,3.0213,3.0215,3.0216,3.0218,3.023,3.0229,3.0228,0,0,0,0,0,0,0,0,0,0,0,0,0,3.0155,3.0152,3.0138,3.0169,3.0172,3.0155,3.0155,3.0155,3.0213,3.0215,3.0217,3.0219,3.023,3.0229,3.0227,3.0179,0,0,3.0223,3.0223,0,0,0,0,0,0,0,0,3.0155,3.0155,3.0165,3.0167,3.0171,3.0184,3.0165,3.0163,3.0212,3.0197,3.0217,3.022,3.0212,3.0213,3.0211,3.0179,3.018,3.0223,3.0222,3.0222,3.0221,0,0,0,0,0,0,0,3.0155,3.0154,3.0144,3.0165,3.0168,3.0181,3.0184,3.0164,3.0193,3.0199,3.0203,3.0204,3.0214,3.0212,3.0212,3.018,3.0223,3.0222,3.0221,3.022,3.0109,3.0107,0,0,0,0,0,0,3.0151,3.0154,3.0144,3.0145,3.0168,3.018,3.0183,3.0178,3.0194,3.0198,3.0203,3.0207,3.0214,3.0213,3.0212,3.0156,3.0222,3.022,3.022,3.0111,3.0109,3.0106,0,0,0,0,0,0,3.0151,3.0149,3.0143,3.0151,3.0151,3.0177,3.0171,3.0177,3.0175,3.0197,3.0202,3.0196,3.0215,3.0214,3.0187,3.0158,3.022,3.0218,3.0114,3.0111,3.0108,3.0044,0,0,0,0,0,0,3.0151,3.0149,3.0132,3.015,3.015,3.0118,3.017,3.0176,3.0173,3.0179,3.0191,3.0195,3.0217,3.0189,3.0186,3.0157,3.0217,3.0117,3.0112,3.0109,3.0049,3.0039,3.0031,0,0,0,0,0,3.0151,3.0112,3.013,3.0129,3.0129,3.0117,3.0117,3.0144,3.017,3.0153,3.0167,3.0195,3.0162,3.0186,3.0183,3.0153,3.0118,3.0114,3.0109,3.0053,3.0041,3.0031,0,0,0,0,0,0,3.0088,3.0115,3.0136,3.0101,3.0106,3.0127,3.0105,3.013,3.0126,3.0132,3.0164,3.0166,3.0134,3.0141,3.0167,3.0107,3.0145,3.0139,3.0103,3.0092,3.0083,3.0081,3.0216,0,0,0,0,0,3.007,3.0059,3.0083,3.005,3.0052,3.0078,3.0073,3.0094,3.01,3.0102,3.0114,3.0117,3.0108,3.01,3.0093,3.0051,3.0054,3.0029,3.002,3.0012,3.0006,2.9984,2.9973,3.0091,3.0091,3.0091,0,0,3.0033,3.0046,3.0037,3.0038,3.0044,3.0031,3.0079,3.0063,3.0053,3.0099,3.0074,3.0083,3.0089,3.0054,3.0039,3.0058,2.9975,3.0006,3.0,2.9998,2.9978,2.9967,2.9957,3.0088,3.0088,3.0089,0,0,2.9957,2.9967,2.9941,2.9947,2.9957,2.9974,2.9968,2.9985,2.9993,2.9969,3.0004,2.9991,2.9974,2.9977,2.9976,2.9904,2.9929,2.99,2.9852,2.983,2.9821,2.9812,2.9786,2.9776,2.9895,2.9894,2.9894,0,2.9909,2.9892,2.9924,2.9906,2.9904,2.9948,2.9921,2.9925,2.993,2.9928,2.9951,2.9931,2.9938,2.9904,2.9886,2.9884,2.9877,2.9898,2.982,2.9812,2.9805,2.9779,2.9769,2.9891,2.9891,2.9892,2.9892,0,2.9831,2.9819,2.9796,2.9803,2.9799,2.9777,2.9804,2.9797,2.9818,2.9833,2.9807,2.9818,2.9813,2.9807,2.9827,2.9776,2.9787,2.9814,2.9853,2.9789,2.9766,2.9757,2.9886,2.9887,2.9888,2.9889,0,0,2.9715,2.9741,2.9732,2.9736,2.975,2.974,2.9719,2.9717,2.9709,2.9712,2.9694,2.968,2.9705,2.9704,2.9725,2.9705,2.9646,2.9735,2.9735,2.9717,2.9589,2.9568,2.9557,2.9664,2.9662,2.9661,2.9589,0,2.9643,2.961,2.9639,2.96,2.9588,2.9629,2.9611,2.9617,2.9631,2.9622,2.9637,2.9626,2.966,2.966,2.9643,2.9657,2.9621,2.9663,2.9646,2.9645,2.9642,2.9545,2.9522,2.9454,2.958,2.9578,2.9577,0,2.9554,2.9555,2.9515,2.9533,2.9529,2.9512,2.9512,2.9503,2.9511,2.9522,2.9522,2.9548,2.9527,2.9567,2.9538,2.9566,2.9561,2.9567,2.9565,2.9563,2.9606,2.9539,2.9432,2.9422,2.9563,2.9565,2.9566,0,2.9472,2.9463,2.9438,2.944,2.946,2.9447,2.9455,2.9465,2.9461,2.9461,2.9459,2.9455,2.9453,2.9449,2.9473,2.9499,2.9441,2.9482,2.9448,2.9448,2.9433,2.9433,2.9323,2.9432,2.9432,2.9432,2.9432,0,2.9388,2.9362,2.9402,2.9386,2.9358,2.9391,2.9361,2.9373,2.9382,2.9368,2.9404,2.939,2.9424,2.9413,2.9431,2.9405,2.9403,2.9411,2.9416,2.9407,2.9406,2.9403,2.9408,2.9429,2.943,2.9431,2.9431,0,2.9291,2.9317,2.9292,2.9314,2.9319,2.9297,2.9315,2.9301,2.9318,2.93,2.9298,2.9323,2.9313,2.9337,2.933,2.9342,2.9304,2.9317,2.9301,2.9305,2.9269,2.9272,2.9152,2.9138,2.9257,2.9256,2.9255,0,2.9235,2.9216,2.9236,2.9231,2.9237,2.9227,2.9224,2.9256,2.9251,2.9259,2.9244,2.9237,2.9233,2.9214,2.9231,2.9225,2.9238,2.9196,2.9237,2.9228,2.9236,2.9236,2.9234,2.9187,2.9186,2.9184,2.9183,0,2.9132,2.9147,2.9142,2.9142,2.9138,2.9139,2.9142,2.9135,2.9169,2.9162,2.9152,2.9149,2.9143,2.9135,2.9133,2.914,2.9166,2.9171,2.9163,2.9153,2.9144,2.9147,2.9277,2.9173,2.9174,2.9175,2.9175,2.9176,2.9054,2.9039,2.9051,2.9044,2.9051,2.9053,2.9041,2.9057,2.9051,2.9049,2.9068,2.9054,2.9062,2.9063,2.9067,2.9056,2.9075,2.9063,2.906,2.9056,2.905,2.9147,2.9056,2.9056,2.9057,2.9057,2.9057,0,2.8952,2.8963,2.8957,2.8961,2.8956,2.8984,2.8989,2.8982,2.897,2.8977,2.8973,2.8961,2.8954,2.8971,2.8966,2.8954,2.8966,2.8952,2.8952,2.8953,2.9034,2.9041,2.8942,2.8942,2.8942,2.8942,2.8942,2.8942,2.8899,2.8875,2.8891,2.887,2.888,2.8869,2.8869,2.8871,2.8877,2.8863,2.8858,2.887,2.888,2.8876,2.8871,2.8876,2.8872,2.8853,2.8862,2.8936,2.8947,2.8958,2.8965,2.8852,2.8852,2.8782,2.8781,2.8781]}]]